Location: Maiden
(35.5760°N, 81.2120°W)
Time: 03:21:06
(UTC-04:00)

Shenzhou-11 Module - Pass Details

Date: 02 August 2020
Orbit: 252 x 272 km, 42.8° (Epoch: 11 August)

Event Time Altitude Azimuth Distance (km) Brightness Sun altitude
Rises 22:11:37 0° 261° (W) 1,866 6.2 -19.0°
Reaches altitude 10° 22:13:36 10° 271° (W) 1,056 5.0 -19.4°
Enters shadow 22:15:21 30° 313° (NW) 501 3.3 -19.6°
